Regional Weather Roundup
Issued by NWS

Home | Current Version | Previous Version | Text Only | Print | Product List | Glossary Off
Versions: 1 2 3 4 5 6 7 8 9 10 11 12 13 14 15 16 17 18 19 20 21 22 23 24 25 26 27 28 29 30 31 32 33 34 35 36 37 38 39 40 41 42 43 44 45 46 47 48 49 50

000
ASUS43 KMPX 280501
RWRMN
WEATHER ROUNDUP FOR MINNESOTA
NATIONAL WEATHER SERVICE TWIN CITIES/CHANHASSEN MN
1200 AM CDT THU MAY 28 2015


NOTE: "FAIR" INDICATES FEW OR NO CLOUDS BELOW 12,000 FEET WITH NO
SIGNIFICANT WEATHER AND/OR OBSTRUCTIONS TO VISIBILITY. N/A MEANS
CURRENT SKY AND/OR WEATHER CONDITIONS ARE NOT AVAILABLE.

MNZ060>063-068>070-280600-
   Twin Cities Metro

CITY           SKY/WX    TMP DP  RH WIND       PRES   REMARKS
TWIN CITIES    CLEAR     69  56  62 CALM      30.03S
ST PAUL        CLEAR     62  59  90 CALM      30.03S
CRYSTAL        CLEAR     63  56  78 CALM      30.01S
BLAINE         CLEAR     61  57  88 CALM      30.03S
LAKEVILLE      CLEAR     61  57  88 CALM      30.04S
EDEN PRAIRIE   CLEAR     66  56  70 CALM      30.02S
SOUTH ST PAUL  CLEAR     64  57  78 CALM      30.03S
LAKE ELMO      FAIR      59  57  94 CALM      30.04F
$$
MNZ001>005-007-008-013>017-022>024-027-028-280600-
   Northwest Minnesota

CITY           SKY/WX    TMP DP  RH WIND       PRES   REMARKS
BEMIDJI        PTCLDY    54  50  87 E3        30.02S
HALLOCK        CLEAR     57  46  67 NE6       30.00S
ROSEAU         MOCLDY    55  48  76 E6        30.03S
WARROAD        PTCLDY    59  54  82 E6        30.04R
THIEF RVR FALL PTCLDY    61  46  59 E3        30.02R
CROOKSTON      PTCLDY    61  50  67 CALM      30.01S
FOSSTON        MOCLDY    59  48  67 CALM      30.02R
DETROIT LAKES  MOCLDY    63  55  77 CALM      30.02S
MOORHEAD       MOCLDY    66  54  63 NE7       29.99F
PARK RAPIDS    MOCLDY    62  53  72 CALM      30.02S
MAHNOMEN       FAIR      61  56  83 CALM      30.00S
$$
MNZ006-009>011-018-025>026-280600-
   North Central Minnesota

CITY           SKY/WX    TMP DP  RH WIND       PRES   REMARKS
BAUDETTE       CLEAR     52  45  77 CALM      30.04R
FLAG ISLAND    PTCLDY    57  46  67 E8        30.02F
INTL FALLS     CLEAR     52  46  80 E3        30.04R
WASKISH        CLEAR     54  52  94 CALM      30.03S
BIG FORK       CLEAR     52  48  87 CALM      30.05R
LONGVILLE      PTCLDY    55  54  94 CALM      30.02S
GRAND RAPIDS   CLEAR     55  48  76 CALM      30.04S
CRANE LAKE     CLEAR     46  45  93 CALM      30.06S
ORR            CLEAR     50  46  87 CALM      30.03R
COOK           CLEAR     52  50  93 CALM      30.05R
WALKER         FAIR      56  53  89 CALM      30.02S
$$
MNZ012-019>021-037-280600-
   Northeast Minnesota

CITY           SKY/WX    TMP DP  RH WIND       PRES   REMARKS
DULUTH         CLEAR     60  49  66 E13       30.05R
HIBBING        CLEAR     53  49  86 CALM      30.04R
EVELETH        CLEAR     52  50  93 CALM      30.06R
DULUTH HARBOR  CLEAR     52  46  82 NE21      30.06R
TWO HARBORS    CLEAR     61  52  72 NE9       30.06R
SILVER BAY     CLEAR     57  46  67 NE7       30.07R
GRAND MARAIS     N/A     46  41  82 CALM      30.08R
G MARAIS ARPRT CLEAR     54  43  66 NE5       30.11R
$$
MNZ029>031-032-039>041-046>048-054>057-064-280600-
   West Central Minnesota

CITY           SKY/WX    TMP DP  RH WIND       PRES   REMARKS
FERGUS FALLS   MOCLDY    70  52  52 E7        29.99S
WHEATON        MOCLDY    66  54  63 SE10      30.00S
MORRIS         PTCLDY    64  54  68 SE6       29.99S
ALEXANDRIA     PTCLDY    63  54  72 SE6       30.03S
ELBOW LAKE     FAIR      68  55  62 E6        30.00S
WADENA         PTCLDY    59  54  82 CALM      30.02S
GLENWOOD       CLEAR     66  54  63 E5        30.03S
APPLETON       MOCLDY    70  54  56 SE6       29.99S
BENSON         PTCLDY    66  52  59 CALM      30.01R
ORTONVILLE     LGT RAIN  72  52  49 CALM      30.00S
MADISON        CLOUDY    70  52  52 SE6       30.00S
WILLMAR        FAIR      66  54  63 SE5       30.03S
$$
MNZ033>034-036-042>043-049>051-058-059-280600-
   Central Minnesota

CITY           SKY/WX    TMP DP  RH WIND       PRES   REMARKS
ST CLOUD       CLEAR     58  55  90 CALM      30.02R
SAUK CENTRE    FAIR      60  56  86 CALM      30.03S
PAYNESVILLE    CLEAR     56  55  94 CALM      30.04R
AITKIN         CLEAR     59  52  77 CALM      30.02R
PINE RIVER     PTCLDY    57  54  88 CALM      30.05S
BRAINERD       PTCLDY    57  55  93 S5        30.03R
STAPLES        PTCLDY    61  54  77 S3        30.02S
LONG PRAIRIE   HAZE      61  54  77 CALM      30.03S VSB 1/4
LITTLE FALLS   CLEAR     55  52  88 CALM      30.03S
LITCHFIELD     CLEAR     63  59  88 CALM      30.04R
BUFFALO        CLEAR     62  57  85 CALM      30.04R
MAPLE LAKE     CLEAR     60  58  95 CALM      30.04R
$$
MNZ037-044-045-052-053-280600-
   East Central Minnesota

CITY           SKY/WX    TMP DP  RH WIND       PRES   REMARKS
PRINCETON      CLEAR     61  57  88 CALM      30.03S
MORA           CLEAR     55  54  94 CALM      30.04S
CAMBRIDGE      CLEAR     63  54  72 CALM      30.01S
RUSH CITY      PTCLDY    59  57  95 CALM      30.03R
MOOSE LAKE     CLEAR     54  52  94 CALM      30.01S
HINCKLEY       FAIR      55  54  94 CALM      30.03R
CLOQUET        CLEAR     59  46  63 E7        30.05R
MCGREGOR       CLEAR     59  54  82 CALM      30.04R
$$
MNZ071>073-080-081-089-090-097-098-280600-
   Southwest Minnesota

CITY           SKY/WX    TMP DP  RH WIND       PRES   REMARKS
MONTEVIDEO     MOCLDY    70  52  52 S6        30.02R
GRANITE FALLS  PTCLDY    69  50  51 CALM      30.02S
CANBY          CLOUDY    69  53  55 CALM      30.02S
MARSHALL       MOCLDY    66  50  55 SW8       30.01S
REDWOOD FALLS  PTCLDY    69  54  58 S3        30.01S
OLIVIA         MOCLDY    68  50  52 CALM      30.02R
PIPESTONE      PTCLDY    66  50  55 CALM      30.04S
WINDOM         PTCLDY    64  54  68 CALM      30.05S
WORTHINGTON    CLEAR     66  48  52 S9        30.06R
JACKSON        CLEAR     64  54  68 S6        30.07R
TRACY          PTCLDY    67  52  59 SW8       30.03S
SLAYTON        PTCLDY    67  48  50 CALM      30.05S
$$
MNZ065>067-074>077-082>085-091>093-280600-
   South Central Minnesota

CITY           SKY/WX    TMP DP  RH WIND       PRES   REMARKS
MANKATO        CLEAR     66  55  68 SE8       30.04S
NEW ULM        CLEAR     66  54  63 S7        30.02S
ST JAMES       PTCLDY    68  55  64 S8        30.05R
FAIRMONT       CLEAR     66  52  59 SW7       30.05R
GLENCOE        CLEAR     65  60  85 CALM      30.03R
FARIBAULT      CLEAR     61  59  94 CALM      30.05S
OWATONNA       CLEAR     64  55  72 SE6       30.06R
WASECA         CLEAR     63  54  72 SE5       30.06S
ALBERT LEA     CLEAR     64  59  82 CALM      30.07R
$$
MNZ078>079-086>088-094>096-280600-
   Southeast Minnesota

CITY           SKY/WX    TMP DP  RH WIND       PRES   REMARKS
ROCHESTER      CLEAR     62  57  83 S6        30.08S
RED WING       CLEAR     61  57  88 CALM      30.03S
STANTON        CLEAR     61  57  87 CALM      30.03S
DODGE CENTER   CLEAR     64  57  77 CALM      30.07S
WINONA         CLEAR     61  61 100 CALM      30.07R
AUSTIN         CLEAR     63  55  77 CALM      30.08R
PRESTON        CLEAR     65  57  75 SW8       30.09S
$$
ABBREVIATIONS USED IN REMARKS
   TC - TEMPERATURES IN CELSIUS
  WCI - WIND CHILL INDEX
   HX - HEAT INDEX
  VSB - VISIBILITY
$$


USA.gov is the U.S. government's official web portal to all federal, state and local government web resources and services.